Regional Weather Roundup
Issued by NWS Newport/Morehead, NC

Current Version | Previous Version | Text Only | Print | Product List | Glossary On
Versions: 1 2 3 4 5 6 7 8 9 10 11 12 13 14 15 16 17 18 19 20 21 22 23 24 25 26 27 28 29 30 31 32 33 34 35 36 37 38 39 40 41 42 43 44 45 46 47 48 49 50
000 ASUS42 KMHX 221722 RWRMHX WEATHER ROUNDUP FOR EASTERN NORTH CAROLINA NATIONAL WEATHER SERVICE NEWPORT/MOREHEAD CITY NC 100 PM EDT WED OCT 22 2014 NOTE: "FAIR" INDICATES FEW OR NO CLOUDS BELOW 12,000 FEET WITH NO SIGNIFICANT WEATHER AND/OR OBSTRUCTIONS TO VISIBILITY NCZ015>017-031-032-045>047-102-103-221800- NORTH COAST CITY SKY/WX TMP DP RH WIND PRES REMARKS EDENTON CLOUDY 57 50 78 NW14 29.87F ELIZABETH CITY CLOUDY 59 51 75 NW12G21 29.85S KITTY HAWK CLOUDY 58 51 78 W13G20 29.81F MANTEO CLOUDY 57 51 79 NW16G22 29.83F $$ NCZ045>047-081-094-103-104-221800- CENTRAL COAST CITY SKY/WX TMP DP RH WIND PRES REMARKS FRISCO CLOUDY 58 49 72 NW17G26 29.86F SWANQUARTER NOT AVBL $$ NCZ095-097-098-100-101-221800- SOUTHERN COAST CITY SKY/WX TMP DP RH WIND PRES REMARKS BEAUFORT PTSUNNY 63 48 58 NW16 29.91F CEDAR ISLAND NOT AVBL JACKSONVILLE MOSUNNY 65 45 48 NW15G26 29.93F PINEY ISLAND PTSUNNY 65 48 54 W17G23 29.89F WILMINGTON SUNNY 65 44 46 NW10G20 29.96F $$ NCZ011>013-027>030-043-044-078>080-089-090>093-098-221800- COASTAL PLAIN CITY SKY/WX TMP DP RH WIND PRES REMARKS AHOSKIE CLOUDY 57 47 70 NW12G24 29.91S CLINTON SUNNY 64 45 49 N9 29.98F ELIZABETHTOWN SUNNY 65 43 46 N5 29.98F GOLDSBORO MOSUNNY 65 49 57 NW15G26 29.94S GREENVILLE PTSUNNY 63 46 55 N15G21 29.95S HAVELOCK PTSUNNY 65 47 52 NW18G25 29.93S KENANSVILLE MOSUNNY 65 43 46 NW10G22 29.96F KINSTON PTSUNNY 64 46 52 NW15G21 29.95F NEW BERN PTSUNNY 65 46 50 NW17G28 29.93S RICHLANDS PTSUNNY 64 43 45 NW8G17 29.94F ROCKY MOUNT PTSUNNY 61 46 57 N18G30 29.96S WASHINGTON CLOUDY 58 47 67 NW15 29.92S WHITEVILLE SUNNY 64 42 44 NW3 29.98F $$ AMZ130-135-150-152-154-156-158-170-250-252-270-ANZ085-086-088-633-658-670-221800- MARINE OBSERVATIONS STATION/POSITION TIME TEMP WIND PRES WAVE SWELL AIR SEA DIR/SP/G HT/PER HT/PER (UTC) (F) (DEG/KT/KT) (MB) (FT/S) (FT/S) CHESAPEAKE LIGHT 1700 60 330/ 24/ 26 1008.5 64 E VA BEACH 1700 60 69 280/ 21/ 27 1006.2 6/ 6 2/11 DUCK 1700 57 68 300/ 21/ 24 1008.7 2 E DUCK 1700 N/A 3/11 2/11 10 NE DUCK 1700 71 N/A 5/ 5 2/11 OREGON INLET 1700 58 68 280/ 16/ 22 1009.8 13E OREGON INLT 1700 73 N/A 4/ 5 HATTERAS CG 1700 59 69 310/ 19/ 23 1011.5 DIAMOND BUOY 1700 62 290/ 23/ 29 1010.6 5/ 5 2/11 17 S OCRACOKE NOT AVBL CAPE LOOKOUT 1700 62 310/ 9/ 15 1012.6 BEAUFORT LAB 1700 62 69 310/ 7/ 15 1012.1 30 SE NEW RIVER 1700 61 76 310/ 16/ 21 1013.3 4/ 5 2/10 5 SE WRIGHTSVLE 1700 59 73 310/ 12/ 14 N/A 225 S CAPE HAT 1552 75 79 310/ 14/ 17 1012.0 5/ 6 2/ 9 41 SE CHARLESTON 1700 63 79 350/ 16/ 19 1016.1 5/ 6 2/ 9 $$

USA.gov is the U.S. government's official web portal to all federal, state and local government web resources and services.